Weather History for Escanaba, MI

Change the Weather History Date:

Friday, June 21, 2013

  Actual Average Record
Temperature  
Mean Temperature 62 °F -  
Max Temperature 64 °F 68 °F 82 °F (2005)
Min Temperature 59 °F 53 °F 39 °F (1963)
Degree Days  
Heating Degree Days 4    
Growing Degree Days 12 (Base 50)    
Moisture  
Dew Point 56 °F    
Average Humidity 82    
Maximum Humidity 88    
Minimum Humidity 72    
Precipitation  
Precipitation 0.11 in - - ()
Sea Level Pressure  
Sea Level Pressure 30.00 in    
Wind  
Wind Speed 6 mph (ESE)    
Max Wind Speed 14 mph    
Max Gust Speed 18 mph    
Visibility 7 miles    
Events Thunderstorm    
Averages and records for this station are not official NWS values.
T = Trace of Precipitation, MM = Missing Value Source: NWS Daily Summary

Daily Weather History Graph

Daily Weather History Graph

Search for Another Location

Airport:

Trip Planner

Search our weather history database for the weather conditions in past years. The results will help you decide how hot, cold, wet, or windy it might be!

Date:

Astronomy

Jun. 21, 2013 Rise Set
Actual Time 5:58 AM EDT 9:41 PM EDT
Civil Twilight 5:20 AM EDT 10:20 PM EDT
Nautical Twilight 4:29 AM EDT 11:11 PM EDT
Astronomical Twilight 3:18 AM EDT 12:22 AM EDT
Moon 7:48 PM EDT (6/21) 4:18 AM EDT (6/21)
Length of Visible Light 16h 59m
Length of Day
15h 42m
Waxing Gibbous, 95% of the Moon is Illuminated
Jun 21
Waxing Gibbous
Jun 23
Full
Jun 30
Last Quarter
Jul 8
New
Jul 15
First Quarter

Hourly Weather History & Observations

Time (EDT) Temp. Dew Point Humidity Pressure Visibility Wind Dir Wind Speed Gust Speed Precip Events Conditions
12:15 AM - - N/A% 30.14 in 10.0 mi NNW 4.6 mph - N/A   Overcast
12:35 AM - - N/A% 30.14 in 10.0 mi NNE 5.8 mph - N/A   Overcast
12:55 AM - - N/A% 30.14 in 10.0 mi ENE 3.5 mph - N/A   Overcast
1:15 AM - - N/A% 30.13 in 10.0 mi NE 8.1 mph - N/A   Overcast
1:35 AM - - N/A% 30.13 in 10.0 mi ENE 4.6 mph - N/A   Overcast
1:55 AM - - N/A% 30.14 in 10.0 mi Calm Calm - N/A   Overcast
2:15 AM - - N/A% 30.13 in 10.0 mi Calm Calm - N/A   Overcast
2:35 AM - - N/A% 30.12 in 10.0 mi Calm Calm - 0.01 in   Overcast
2:55 AM - - N/A% 30.11 in 10.0 mi SE 6.9 mph - 0.01 in   Overcast
3:15 AM - - N/A% 30.11 in 10.0 mi SE 6.9 mph - N/A   Overcast
3:35 AM - - N/A% 30.10 in 10.0 mi ESE 9.2 mph - N/A   Overcast
3:55 AM - - N/A% 30.10 in 10.0 mi SE 4.6 mph - N/A   Overcast
4:15 AM - - N/A% 30.10 in 10.0 mi Calm Calm - N/A   Overcast
4:35 AM 60.8 °F 51.8 °F 72% 30.11 in 10.0 mi Calm Calm - N/A   Overcast
4:55 AM - - N/A% 30.10 in 10.0 mi Calm Calm - N/A   Overcast
5:15 AM 60.8 °F 53.6 °F 77% 30.09 in 10.0 mi Calm Calm - N/A   Mostly Cloudy
5:35 AM 60.8 °F 51.8 °F 72% 30.08 in 10.0 mi ESE 4.6 mph - N/A   Mostly Cloudy
5:55 AM - - N/A% 30.07 in 10.0 mi East 6.9 mph - N/A   Mostly Cloudy
6:15 AM - - N/A% 30.08 in 10.0 mi ESE 5.8 mph - N/A   Overcast
6:35 AM - - N/A% 30.08 in 10.0 mi SE 5.8 mph - N/A   Overcast
7:15 AM - - N/A% 30.06 in 7.0 mi ESE 10.4 mph - N/A   Overcast
7:35 AM - - N/A% 30.04 in 10.0 mi ESE 12.7 mph - N/A   Partly Cloudy
7:55 AM - - N/A% 30.04 in 10.0 mi SE 12.7 mph - N/A   Clear
8:15 AM - - N/A% 30.04 in 10.0 mi ESE 13.8 mph 18.4 mph N/A   Clear
8:35 AM - - N/A% 30.03 in 10.0 mi ESE 12.7 mph - N/A   Clear
8:55 AM - - N/A% 30.03 in 10.0 mi ESE 12.7 mph - N/A   Clear
9:15 AM - - N/A% 30.03 in 10.0 mi ESE 10.4 mph - N/A   Clear
9:35 AM - - N/A% 30.04 in 10.0 mi ESE 9.2 mph - N/A   Clear
9:55 AM - - N/A% 30.04 in 10.0 mi SE 11.5 mph - N/A   Clear
10:15 AM - - N/A% 30.04 in 10.0 mi SE 10.4 mph - N/A   Mostly Cloudy
10:35 AM - - N/A% 30.02 in 10.0 mi SE 11.5 mph - N/A   Overcast
10:55 AM - - N/A% 30.01 in 7.0 mi SE 11.5 mph - 0.01 in Thunderstorm Thunderstorm
11:15 AM 59.0 °F 53.6 °F 82% 30.00 in 10.0 mi SE 10.4 mph - 0.04 in Thunderstorm Overcast
11:35 AM 60.8 °F 55.4 °F 82% 29.99 in 7.0 mi SSE 13.8 mph - 0.04 in   Overcast
11:55 AM 60.8 °F 55.4 °F 82% 29.95 in 4.0 mi SE 11.5 mph - 0.06 in Thunderstorm Overcast
12:15 PM - - N/A% 29.93 in 3.0 mi ESE 10.4 mph - 0.01 in   Overcast
12:35 PM - - N/A% 29.92 in 3.0 mi ESE 12.7 mph - 0.01 in   Overcast
12:55 PM - - N/A% 29.93 in 2.5 mi SE 5.8 mph 17.3 mph 0.02 in   Overcast
1:15 PM - - N/A% 29.93 in 3.0 mi East 4.6 mph - 0.01 in   Mostly Cloudy
1:35 PM 62.6 °F 57.2 °F 82% 29.94 in 3.0 mi Calm Calm - 0.01 in   Overcast
1:55 PM - - N/A% 29.94 in 3.0 mi NE 4.6 mph - 0.01 in   Mostly Cloudy
2:15 PM - - N/A% 29.95 in 3.0 mi East 6.9 mph - N/A   Scattered Clouds
2:35 PM - - N/A% 29.95 in 3.0 mi East 8.1 mph - N/A   Mostly Cloudy
2:55 PM - - N/A% 29.95 in 3.0 mi East 10.4 mph - N/A   Mostly Cloudy
3:15 PM - - N/A% 29.95 in 2.5 mi ESE 11.5 mph - N/A   Overcast
3:35 PM - - N/A% 29.92 in 3.0 mi ESE 12.7 mph - N/A   Overcast
3:55 PM - - N/A% 29.91 in 4.0 mi ESE 11.5 mph 16.1 mph N/A   Overcast
4:15 PM - - N/A% 29.91 in 5.0 mi ESE 6.9 mph - N/A   Overcast
4:35 PM - - N/A% 29.90 in 4.0 mi ESE 9.2 mph - N/A   Overcast
4:55 PM - - N/A% 29.90 in 3.0 mi East 10.4 mph - N/A   Overcast
5:15 PM - - N/A% 29.90 in 3.0 mi East 9.2 mph - N/A   Overcast
5:35 PM - - N/A% 29.90 in 3.0 mi East 5.8 mph - N/A   Overcast
5:55 PM - - N/A% 29.90 in 3.0 mi East 8.1 mph - N/A   Overcast
6:15 PM - - N/A% 29.91 in 4.0 mi East 4.6 mph - N/A   Overcast
6:35 PM - - N/A% 29.91 in 5.0 mi East 3.5 mph - N/A   Overcast
6:55 PM - - N/A% 29.91 in 5.0 mi East 3.5 mph - N/A   Overcast
7:15 PM - - N/A% 29.91 in 5.0 mi Calm Calm - N/A   Overcast
7:35 PM - - N/A% 29.91 in 7.0 mi Calm Calm - N/A   Scattered Clouds
7:55 PM 64.4 °F 57.2 °F 77% 29.92 in 7.0 mi Calm Calm - N/A   Mostly Cloudy
8:15 PM 64.4 °F 59.0 °F 83% 29.93 in 8.0 mi Calm Calm - N/A   Overcast
8:35 PM - - N/A% 29.93 in 9.0 mi Calm Calm - N/A   Overcast
8:55 PM - - N/A% 29.93 in 8.0 mi WSW 4.6 mph - N/A   Overcast
9:15 PM - - N/A% 29.94 in 7.0 mi West 3.5 mph - N/A   Mostly Cloudy
9:35 PM - - N/A% 29.95 in 4.0 mi West 3.5 mph - N/A   Mostly Cloudy
9:55 PM 64.4 °F 60.8 °F 88% 29.97 in 4.0 mi NW 3.5 mph - N/A   Overcast
10:15 PM - - N/A% 29.97 in 6.0 mi NW 5.8 mph - N/A   Scattered Clouds
10:35 PM 64.4 °F 60.8 °F 88% 29.99 in 5.0 mi Calm Calm - N/A   Clear
10:55 PM 62.6 °F 59.0 °F 88% 29.99 in 0.2 mi Calm Calm - N/A   Unknown
11:15 PM 60.8 °F 57.2 °F 88% 29.99 in 0.2 mi Calm Calm - N/A   Overcast
11:35 PM 59.0 °F 55.4 °F 88% 30.00 in 0.2 mi West 3.5 mph - N/A   Overcast
11:55 PM 60.8 °F 57.2 °F 88% 30.00 in 0.8 mi WNW 4.6 mph - N/A   Overcast